Погода в Позитано

Италия     40°37′41″N   14°29′22″E
темп.,
°C
ветер,
м/с
пор.,
м/с
влажн.,
%
обл.,
%
осадки,
мм/ч
давл.,
гПа
погр.,
м
23 мая, пн
пн2323:00+19ю017657 0.0 1014146
02:00+18юз118220 0.0 101449
05:00+17зюз01875 0.0 101238
08:00+19юз117091 0.0 1012306
11:00+23юз22525 0.0 1012676
14:00+24зюз324614 0.0 1011703
17:00+24зюз22436 0.0 1011589
20:00+22юз01485 0.0 1010155
24 мая, вт
вт2423:00+20ююв11555 0.0 101231
02:00+19ююв00595 0.0 101111
05:00+18юз00605 0.0 101011
08:00+22юз114538 0.0 1011149
11:00+26ююз2230100 0.0 1011554
14:00+28ююз332870 0.0 1011801
17:00+27юз22282 0.0 1010684
20:00+25ююз11341 0.0 101085
25 мая, ср
ср2523:00+23с00370 0.0 101211
02:00+22ссз11395 0.0 101211
05:00+21св113994 0.0 101211
08:00+25всв122817 0.0 101282
11:00+30юз112074 0.0 1013659
14:00+31ю331942 0.0 10141186
17:00+31ю232189 0.0 1014884
20:00+28ююв222889 0.0 101462
26 мая, чт
чт2623:00+25зсз22355 0.0 101741
02:00+24с1137100 0.0 101814
05:00+23св2234100 0.0 101620
08:00+25з223485 0.0 1018154
11:00+29зюз2126100 0.0 1019734
14:00+32ююз3319100 0.0 10181336
17:00+31ююв121892 0.0 1017546
20:00+28зюз233098 0.0 1017127
27 мая, пт
пт2723:00+25св2239100 0.1 101867
02:00+24з1148100 0.4 101716
05:00+23всв236088 0.6 101555
08:00+24ссв2357100 0.6 1015172
11:00+27ююз1240100 0.0 1016629
14:00+30ююз242490 0.0 10141329
17:00+30юв2321100 0.0 1012955
20:00+27с0135100 0.1 101149